FOX-1CLIFF (AO-95)

Last updated on Mon Sep 15 2025 00:03:09 GMT+0000 (Coordinated Universal Time)

1 43770U 18099N 25257.15289024 .00007006 00000+0 33845-3 0 9998 2 43770 97.4817 314.2260 0009266 229.0553 130.9881 15.18920794371205
UTC large
Height (km)
Speed (km/s)
/
Latitude / Longitude
Inclination (degrees)
Orbital Period (minutes)
Azimuth
Elevation
Range (km)
Doppler Factor

Next 0 passes for location: London (51.5072 / 0.1276)

Sorry there are no passes over London.